This is the latest recevied weather packets stored in our database for station/object WX2P-13. If no packets are shown the sender has not sent any weather packets the latest 10 day(s).
| Time | Temp. | Humidity | Pressure | Rain* | Wind** | Luminosity | Snow |
|---|---|---|---|---|---|---|---|
| 1777916342 | 28.33° C | 40% | 1016.9 hPa | 0 mm | - | 738 W/m² | - |
| 1777916038 | 28.89° C | 39% | 1017 hPa | 0 mm | - | 749 W/m² | - |
| 1777915735 | 28.89° C | 39% | 1017.2 hPa | 0 mm | - | 767 W/m² | - |
| 1777915432 | 28.89° C | 39% | 1017.2 hPa | 0 mm | - | 790 W/m² | - |
| 1777915127 | 28.33° C | 41% | 1017.2 hPa | 0 mm | - | 803 W/m² | - |
| 1777914522 | 26.67° C | 43% | 1017.2 hPa | 0 mm | - | 825 W/m² | - |
| 1777914219 | 27.78° C | 41% | 1017.3 hPa | 0 mm | - | 702 W/m² | - |
| 1777913915 | 28.33° C | 43% | 1017.5 hPa | 0 mm | - | 786 W/m² | - |
| 1777913612 | 28.33° C | 43% | 1017.8 hPa | 0 mm | - | 791 W/m² | - |
| 1777913308 | 27.22° C | 42% | 1017.6 hPa | 0 mm | - | 773 W/m² | - |
| 1777912701 | 27.78° C | 43% | 1018 hPa | 0 mm | - | 752 W/m² | - |
| 1777912397 | 27.78° C | 43% | 1018 hPa | 0 mm | - | 771 W/m² | - |
| 1777912094 | 28.33° C | 45% | 1017.7 hPa | 0 mm | - | 770 W/m² | - |
| 1777911789 | 27.78° C | 47% | 1017.9 hPa | 0 mm | - | 767 W/m² | - |
| 1777911183 | 27.22° C | 45% | 1018 hPa | 0 mm | - | 769 W/m² | - |
| 1777910577 | 26.67° C | 48% | 1018.1 hPa | 0 mm | - | 757 W/m² | - |
| 1777910275 | 27.78° C | 47% | 1018.1 hPa | 0 mm | - | 751 W/m² | - |
| 1777909971 | 26.67° C | 47% | 1018.2 hPa | 0 mm | - | 765 W/m² | - |
| 1777909365 | 27.22° C | 48% | 1018.2 hPa | 0 mm | - | 734 W/m² | - |
| 1777909063 | 27.22° C | 50% | 1018.3 hPa | 0 mm | - | 725 W/m² | - |
| 1777908761 | 26.67° C | 50% | 1018.3 hPa | 0 mm | - | 735 W/m² | - |
| 1777908458 | 27.22° C | 50% | 1018.2 hPa | 0 mm | - | 793 W/m² | - |
| 1777908154 | 26.11° C | 51% | 1018.4 hPa | 0 mm | - | 775 W/m² | - |
| 1777907242 | 26.11° C | 52% | 1018.3 hPa | 0 mm | - | 798 W/m² | - |
| 1777906939 | 26.11° C | 53% | 1018.4 hPa | 0 mm | - | 752 W/m² | - |
* Rain latest hour (hover to see other rain measurements)
** Current wind speed in m/s (hover to see current wind gust speed)